Cloud_Cover
0 5 6 14 4 0 4 4 5 9 19 70 82 21 40 94 40 24 5 2 0 2 16 100 100 100 69 4 5 4 20 26 100 100 99 100 6 56 8 0 3 10 6 6 0 0 0 0 0
0 13 41 20 5 7 14 40 5 10 7 99 100 100 96 53 58 53 5 3 0 0 91 100 100 100 80 7 5 11 6 98 100 100 100 81 28 52 9 17 15 7 4 4 1 0 0 0 0
0 6 11 5 5 35 32 56 100 63 5 92 100 100 63 42 78 32 5 5 5 1 100 100 99 100 65 5 1 27 7 36 100 100 25 15 13 10 11 1 5 4 0 0 0 0 0 0 0
0 0 2 2 0 1 100 62 99 100 78 70 82 100 89 72 13 4 4 1 6 5 93 100 100 100 88 1 0 11 6 5 73 6 13 15 10 4 2 5 0 0 0 0 0 0 0 0 0
0 0 3 0 2 2 54 100 35 86 100 100 100 87 32 34 68 72 8 6 9 70 73 100 100 100 100 17 0 8 6 7 15 68 16 13 5 0 0 0 0 0 0 0 0 0 0 0 0
0 0 1 0 0 1 5 80 100 75 97 100 98 95 99 33 5 4 24 64 54 80 91 100 100 100 100 21 10 8 0 3 13 20 22 17 0 0 0 0 0 0 0 0 0 0 0 0 0
0 0 0 0 0 4 3 5 60 100 88 100 100 100 87 31 12 3 0 1 5 100 37 100 100 100 95 2 10 10 0 0 0 0 0 0 0 0 0 0 0 0 0 0 0 0 0 0 0
0 0 0 0 0 0 0 5 44 5 35 16 100 100 100 94 44 5 0 0 2 99 40 2 1 3 0 1 10 6 25 0 4 0 0 11 5 0 0 0 0 0 0 0 0 0 0 0 0
0 0 1 0 0 0 2 5 5 5 7 42 16 80 100 91 76 79 5 4 0 2 21 0 0 0 0 1 1 7 15 5 19 5 3 0 0 0 0 0 0 0 0 0 0 0 0 0 0
0 0 4 0 0 5 5 5 3 3 0 0 1 0 6 12 6 5 5 0 0 0 0 40 2 1 0 4 2 2 1 0 0 0 0 0 0 0 0 0 0 0 0 0 0 0 0 0 0
0 0 0 0 5 0 0 1 0 0 0 0 0 4 0 0 1 4 5 4 0 0 0 4 98 92 42 0 0 0 0 0 0 2 0 0 0 0 0 0 0 0 0 0 0 4 0 2 0
0 2 2 0 3 2 1 0 0 0 2 0 0 0 94 100 80 47 50 0 0 0 0 0 2 82 66 17 0 0 0 0 0 0 4 0 0 0 0 5 4 3 3 4 34 48 0 3 0
0 0 3 5 0 2 5 0 0 0 0 2 1 0 0 2 47 50 19 5 4 2 0 0 2 1 2 9 1 0 0 4 5 0 0 0 0 0 0 0 0 2 46 48 29 49 1 5 46
0 0 1 0 4 5 3 5 4 0 0 0 0 0 0 0 0 0 0 0 8 43 35 4 4 2 5 5 5 2 5 3 5 1 5 5 5 5 0 0 2 0 5 100 65 4 0 5 100
1 0 0 0 0 0 0 3 5 0 0 0 0 0 0 0 0 0 0 0 0 26 72 13 0 0 2 36 82 0 0 0 0 0 0 1 4 0 0 0 1 5 90 100 100 19 0 14 4
13 1 0 0 0 0 3 1 5 0 0 5 4 5 5 5 5 5 3 1 2 4 14 15 40 52 71 18 0 0 0 0 0 0 0 0 1 1 0 0 0 6 10 96 98 90 100 100 74
0 0 0 0 0 0 4 38 37 10 15 5 30 17 7 5 3 3 20 74 99 32 4 1 3 18 56 71 10 6 0 0 0 0 0 0 16 4 0 0 0 0 8 100 100 100 100 100 100
0 0 0 20 0 0 5 6 65 2 4 5 33 45 86 5 5 5 45 71 21 100 89 53 50 80 97 95 39 34 9 2 0 0 5 4 0 0 0 0 0 0 43 100 75 82 80 100 100
0 0 4 97 69 10 2 5 5 5 5 5 5 5 5 4 23 4 1 58 48 9 97 94 94 100 100 94 100 37 100 65 9 0 0 0 0 1 0 0 0 0 100 100 84 85 50 27 51
5 0 54 100 56 13 84 21 6 5 5 65 45 43 71 18 26 22 5 5 31 85 100 99 97 92 100 100 100 100 100 78 91 68 42 30 38 6 4 2 1 1 100 69 100 72 57 90 18
100 96 39 14 96 32 3 56 100 21 5 10 92 40 5 0 2 16 55 10 5 16 100 56 68 100 100 100 100 100 100 100 60 7 49 94 97 90 85 25 94 67 95 100 94 94 99 17 14
94 100 100 96 63 5 5 8 66 50 24 2 2 5 5 5 0 2 3 5 5 5 5 2 4 16 3 3 15 100 100 100 98 94 97 70 79 81 100 100 100 100 69 87 98 89 77 53 22
86 16 5 5 2 5 33 70 60 99 94 99 37 5 5 29 5 5 4 100 62 81 5 1 2 5 1 5 5 29 20 16 72 99 100 99 100 99 100 100 98 100 85 69 28 41 49 68 64
100 100 100 56 54 18 35 48 99 96 63 40 15 5 2 5 5 5 5 5 4 5 5 5 5 8 5 5 8 15 11 14 13 5 49 80 80 62 92 100 100 100 100 100 100 100 96 98 99
22 42 33 4 5 5 15 39 7 32 62 42 30 16 6 5 5 5 5 5 5 3 3 1 4 5 5 5 5 7 27 31 10 50 64 39 50 56 95 98 100 100 100 100 100 100 100 96 84
0 0 0 0 0 0 0 0 0 52 94 100 99 99 81 32 5 5 5 5 5 5 5 5 5 28 14 24 31 11 17 6 23 45 39 28 10 10 8 9 82 100 100 99 98 64 94 78 82
0 0 0 0 0 0 0 3 4 6 4 0 0 0 0 0 0 5 5 9 36 11 23 79 46 57 6 5 5 27 6 25 41 83 100 65 43 5 1 7 20 16 7 43 87 82 12 99 100
0 0 5 3 4 2 0 0 0 5 2 0 0 0 0 0 2 5 5 5 5 5 5 5 13 40 53 46 5 14 6 19 50 90 100 100 100 76 75 48 70 100 88 17 15 36 18 35 100
0 0 0 4 70 96 47 8 5 5 3 2 0 0 4 5 5 5 5 5 5 5 5 5 5 5 5 5 22 58 89 76 84 100 100 100 100 100 100 100 88 100 100 100 27 1 7 17 100
0 0 0 3 5 5 6 4 5 48 96 82 99 0 9 5 5 5 5 5 5 5 5 5 5 5 5 6 15 6 60 100 100 100 100 100 100 99 100 100 100 100 100 100 100 15 0 29 100